This demonstration page uses our WeatherBlox Daily Observations layout. Learn more.

Left ArrowRight Arrow

53.62937, 11.41316

Hourly Observations for January 9, 2016

Temp ( °F °C ) Dew Point ( °F °C ) Humidity (%) Winds ( mph kmh ) Pressure ( in mb ) Visibility ( mi km ) Precip ( " mm )
5:20 am 05:20 Mostly Clear 34 1 32 0 93 93 S 3 6 29.65 1004 7 11 N/A
5:50 am 05:50 Mostly Clear 34 1 32 0 93 93 S 3 6 29.65 1004 7 11 N/A
6:20 am 06:20 Mostly Clear 28 -2 27 -3 93 93 S 5 7 29.65 1004 7 11 N/A
6:50 am 06:50 Mostly Clear 32 0 30 -1 93 93 VRB 2 4 29.65 1004 7 11 N/A
7:20 am 07:20 Mostly Clear 32 0 30 -1 93 93 VRB 2 4 29.65 1004 7 11 N/A
7:50 am 07:50 Mostly Clear 30 -1 28 -2 93 93 SE 5 7 29.65 1004 7 11 N/A
8:20 am 08:20 Mostly Clear 32 0 30 -1 93 93 SE 5 7 29.65 1004 7 11 N/A
8:50 am 08:50 Mostly Sunny 34 1 30 -1 87 87 ESE 7 11 29.65 1004 7 11 N/A
9:20 am 09:20 Mostly Sunny 32 0 30 -1 93 93 ESE 8 13 29.65 1004 7 11 N/A
9:50 am 09:50 Mostly Sunny 32 0 30 -1 93 93 E 8 13 29.65 1004 7 11 N/A
10:20 am 10:20 Mostly Sunny 32 0 30 -1 93 93 E 8 13 29.65 1004 7 11 N/A
10:50 am 10:50 Mostly Sunny 36 2 32 0 87 87 E 6 9 29.65 1004 7 11 N/A
11:20 am 11:20 Mostly Sunny 37 3 30 -1 75 75 SE 5 7 29.65 1004 7 11 N/A
11:50 am 11:50 Mostly Sunny 37 3 30 -1 75 75 SSE 9 15 29.65 1004 7 11 N/A
12:20 pm 12:20 Mostly Sunny 37 3 30 -1 75 75 SSE 9 15 29.62 1003 7 11 N/A
12:50 pm 12:50 Mostly Sunny 39 4 30 -1 70 70 S 7 11 29.62 1003 7 11 N/A
1:20 pm 13:20 Mostly Sunny 39 4 30 -1 70 70 S 7 11 29.62 1003 7 11 N/A
1:50 pm 13:50 Mostly Sunny 39 4 30 -1 70 70 S 6 9 29.62 1003 7 11 N/A
2:20 pm 14:20 Mostly Sunny 39 4 30 -1 70 70 SSE 6 9 29.62 1003 7 11 N/A
2:50 pm 14:50 Mostly Sunny 39 4 32 0 75 75 SSE 6 9 29.62 1003 7 11 N/A
3:20 pm 15:20 Mostly Sunny 39 4 32 0 75 75 SE 8 13 29.62 1003 7 11 N/A
3:50 pm 15:50 Mostly Sunny 37 3 32 0 81 81 SE 10 17 29.62 1003 7 11 N/A
4:20 pm 16:20 Mostly Clear 37 3 32 0 81 81 ESE 8 13 29.62 1003 7 11 N/A
4:50 pm 16:50 Mostly Clear 36 2 30 -1 81 81 ESE 9 15 29.59 1002 7 11 N/A
5:20 pm 17:20 Mostly Clear 34 1 32 0 93 93 ESE 8 13 29.59 1002 7 11 N/A
5:50 pm 17:50 Mostly Clear 34 1 30 -1 87 87 ESE 9 15 29.59 1002 7 11 N/A

Powered by AerisWeather